Location: Newark
(54.3386°S, 169.8415°W)
Time: 17:31:42
(UTC+00:00)

Transit 2A Rocket - Pass Details

Date: 28 October 2019
Orbit: 594 x 909 km, 66.7° (Epoch: 14 November)

Event Time Altitude Azimuth Distance (km) Brightness Sun altitude
Rises 10:40:23 0° 223° (SW) 3,548 9.3 -22.4°
Reaches altitude 10° 10:42:55 10° 225° (SW) 2,618 8.4 -22.4°
Maximum altitude 10:49:00 64° 304° (NW) 1,013 5.4 -22.5°
Enters shadow 10:50:34 48° 1° (N) 1,187 5.5 -22.5°
Drops below altitude 10° 10:54:58 10° 24° (NNE) 2,568 - -22.5°
Sets 10:57:26 0° 27° (NNE) 3,475 - -22.5°
